Time,TemperatureF,DewpointF,PressureIn,WindDirection,WindDirectionDegrees,WindSpeedMPH,WindSpeedGustMPH,Humidity,HourlyPrecipIn,Conditions,Clouds,dailyrainin,SoftwareType,DateUTC
2013-02-24 00:04:00,30.7,25.6,30.01,North,0,0.0,-999.0,81,0.00,,,0.00,open2300 v1.10,2013-02-24 06:04:00,
2013-02-24 00:12:00,30.7,25.9,30.02,North,0,0.0,-999.0,82,0.00,,,0.00,open2300 v1.10,2013-02-24 06:12:00,
2013-02-24 00:18:00,30.7,25.9,30.02,North,0,0.0,-999.0,82,0.00,,,0.00,open2300 v1.10,2013-02-24 06:18:00,
2013-02-24 00:26:00,31.1,26.3,30.03,North,0,0.0,-999.0,82,0.00,,,0.00,open2300 v1.10,2013-02-24 06:26:00,
2013-02-24 00:33:00,31.1,26.3,30.02,North,0,0.0,-999.0,82,0.00,,,0.00,open2300 v1.10,2013-02-24 06:33:00,
2013-02-24 00:41:00,30.9,26.1,30.03,North,0,0.0,-999.0,82,0.00,,,0.00,open2300 v1.10,2013-02-24 06:41:00,
2013-02-24 00:48:00,30.4,25.6,30.03,North,0,0.0,-999.0,82,0.00,,,0.00,open2300 v1.10,2013-02-24 06:48:00,
2013-02-24 00:56:00,30.0,25.2,30.03,North,0,0.0,-999.0,82,0.00,,,0.00,open2300 v1.10,2013-02-24 06:56:00,
2013-02-24 01:06:00,29.8,25.0,30.03,North,0,0.0,-999.0,82,0.00,,,0.00,open2300 v1.10,2013-02-24 07:06:00,
2013-02-24 01:12:00,29.8,25.0,30.03,North,0,0.0,-999.0,82,0.00,,,0.00,open2300 v1.10,2013-02-24 07:12:00,
2013-02-24 01:18:00,29.7,24.8,30.03,North,0,0.0,-999.0,82,0.00,,,0.00,open2300 v1.10,2013-02-24 07:18:00,
2013-02-24 01:26:00,29.7,25.1,30.03,North,0,0.0,-999.0,83,0.00,,,0.00,open2300 v1.10,2013-02-24 07:26:00,
2013-02-24 01:33:00,29.8,25.3,30.03,North,0,0.0,-999.0,83,0.00,,,0.00,open2300 v1.10,2013-02-24 07:33:00,
2013-02-24 01:41:00,29.7,25.1,30.02,North,0,0.0,-999.0,83,0.00,,,0.00,open2300 v1.10,2013-02-24 07:41:00,
2013-02-24 01:48:00,29.7,25.1,30.03,North,0,0.0,-999.0,83,0.00,,,0.00,open2300 v1.10,2013-02-24 07:48:00,
2013-02-24 01:56:00,29.7,25.1,30.03,North,0,0.0,-999.0,83,0.00,,,0.00,open2300 v1.10,2013-02-24 07:56:00,
2013-02-24 02:04:00,29.5,24.9,30.03,North,0,0.0,-999.0,83,0.00,,,0.00,open2300 v1.10,2013-02-24 08:04:00,
2013-02-24 02:11:00,29.5,24.9,30.03,North,0,0.0,-999.0,83,0.00,,,0.00,open2300 v1.10,2013-02-24 08:11:00,
2013-02-24 02:18:00,29.7,25.1,30.03,North,0,0.0,-999.0,83,0.00,,,0.00,open2300 v1.10,2013-02-24 08:18:00,
2013-02-24 02:26:00,29.5,24.9,30.03,North,0,0.0,-999.0,83,0.00,,,0.00,open2300 v1.10,2013-02-24 08:26:00,
2013-02-24 02:33:00,29.1,24.6,30.03,North,0,0.0,-999.0,83,0.00,,,0.00,open2300 v1.10,2013-02-24 08:33:00,
2013-02-24 02:42:00,28.6,24.0,30.03,North,0,0.0,-999.0,83,0.00,,,0.00,open2300 v1.10,2013-02-24 08:42:00,
2013-02-24 02:48:00,28.6,24.3,30.03,North,0,0.0,-999.0,84,0.00,,,0.00,open2300 v1.10,2013-02-24 08:48:00,
2013-02-24 02:56:00,28.2,24.0,30.03,North,0,0.0,-999.0,84,0.00,,,0.00,open2300 v1.10,2013-02-24 08:56:00,
2013-02-24 03:04:00,28.2,24.0,30.02,North,0,0.0,-999.0,84,0.00,,,0.00,open2300 v1.10,2013-02-24 09:04:00,
2013-02-24 03:12:00,28.2,24.0,30.02,North,0,0.0,-999.0,84,0.00,,,0.00,open2300 v1.10,2013-02-24 09:12:00,
2013-02-24 03:18:00,28.0,23.8,30.02,North,0,0.0,-999.0,84,0.00,,,0.00,open2300 v1.10,2013-02-24 09:18:00,
2013-02-24 03:27:00,28.0,23.8,30.02,North,0,0.0,-999.0,84,0.00,,,0.00,open2300 v1.10,2013-02-24 09:27:00,
2013-02-24 03:33:00,27.9,23.6,30.02,North,0,0.0,-999.0,84,0.00,,,0.00,open2300 v1.10,2013-02-24 09:33:00,
2013-02-24 03:41:00,27.7,23.4,30.02,North,0,0.0,-999.0,84,0.00,,,0.00,open2300 v1.10,2013-02-24 09:41:00,
2013-02-24 03:48:00,27.7,23.4,30.03,North,0,0.0,-999.0,84,0.00,,,0.00,open2300 v1.10,2013-02-24 09:48:00,
2013-02-24 03:57:00,28.0,24.1,30.03,North,0,0.0,-999.0,85,0.00,,,0.00,open2300 v1.10,2013-02-24 09:57:00,
2013-02-24 04:04:00,28.0,24.1,30.03,North,0,0.0,-999.0,85,0.00,,,0.00,open2300 v1.10,2013-02-24 10:04:00,
2013-02-24 04:11:00,27.5,23.2,30.02,North,0,0.0,-999.0,84,0.00,,,0.00,open2300 v1.10,2013-02-24 10:11:00,
2013-02-24 04:18:00,27.3,23.1,30.02,North,0,0.0,-999.0,84,0.00,,,0.00,open2300 v1.10,2013-02-24 10:18:00,
2013-02-24 04:27:00,27.3,23.4,30.02,North,0,0.0,-999.0,85,0.00,,,0.00,open2300 v1.10,2013-02-24 10:27:00,
2013-02-24 04:33:00,27.5,23.5,30.02,North,0,0.0,-999.0,85,0.00,,,0.00,open2300 v1.10,2013-02-24 10:33:00,
2013-02-24 04:41:00,27.3,23.4,30.02,North,0,0.0,-999.0,85,0.00,,,0.00,open2300 v1.10,2013-02-24 10:41:00,
2013-02-24 04:48:00,27.3,23.4,30.02,North,0,0.0,-999.0,85,0.00,,,0.00,open2300 v1.10,2013-02-24 10:48:00,
2013-02-24 04:56:00,27.3,23.4,30.02,North,0,0.0,-999.0,85,0.00,,,0.00,open2300 v1.10,2013-02-24 10:56:00,
2013-02-24 05:04:00,27.7,23.7,30.03,North,0,0.0,-999.0,85,0.00,,,0.00,open2300 v1.10,2013-02-24 11:04:00,
2013-02-24 05:12:00,28.0,24.4,30.04,North,0,0.0,-999.0,86,0.00,,,0.00,open2300 v1.10,2013-02-24 11:12:00,
2013-02-24 05:18:00,28.2,24.5,30.04,North,0,0.0,-999.0,86,0.00,,,0.00,open2300 v1.10,2013-02-24 11:18:00,
2013-02-24 05:27:00,28.2,24.5,30.05,North,0,0.0,-999.0,86,0.00,,,0.00,open2300 v1.10,2013-02-24 11:27:00,
2013-02-24 05:33:00,28.2,24.5,30.05,North,0,0.0,-999.0,86,0.00,,,0.00,open2300 v1.10,2013-02-24 11:33:00,
2013-02-24 05:41:00,28.2,24.5,30.05,North,0,0.0,-999.0,86,0.00,,,0.00,open2300 v1.10,2013-02-24 11:41:00,
2013-02-24 05:48:00,28.2,24.5,30.06,North,0,0.0,-999.0,86,0.00,,,0.00,open2300 v1.10,2013-02-24 11:48:00,
2013-02-24 05:57:00,28.6,24.9,30.06,North,0,0.0,-999.0,86,0.00,,,0.00,open2300 v1.10,2013-02-24 11:57:00,
2013-02-24 06:04:00,28.6,24.9,30.06,North,0,0.0,-999.0,86,0.00,,,0.00,open2300 v1.10,2013-02-24 12:04:00,
2013-02-24 06:12:00,28.6,24.9,30.07,North,0,0.0,-999.0,86,0.00,,,0.00,open2300 v1.10,2013-02-24 12:12:00,
2013-02-24 06:18:00,28.6,24.9,30.08,North,0,0.0,-999.0,86,0.00,,,0.00,open2300 v1.10,2013-02-24 12:18:00,
2013-02-24 06:27:00,28.6,24.9,30.08,North,0,0.0,-999.0,86,0.00,,,0.00,open2300 v1.10,2013-02-24 12:27:00,
2013-02-24 06:48:00,28.0,24.1,30.09,North,0,0.0,-999.0,85,0.00,,,0.00,open2300 v1.10,2013-02-24 12:48:00,
2013-02-24 08:18:00,42.4,34.1,30.10,ESE,112,0.0,-999.0,72,0.00,,,0.00,open2300 v1.10,2013-02-24 14:18:00,
2013-02-24 08:48:00,43.9,33.6,30.11,ESE,112,0.0,-999.0,67,0.00,,,0.00,open2300 v1.10,2013-02-24 14:48:00,
2013-02-24 09:42:00,46.0,32.9,30.09,ESE,112,0.0,-999.0,60,0.00,,,0.00,open2300 v1.10,2013-02-24 15:42:00,
2013-02-24 10:42:00,54.3,35.5,30.09,ENE,67,0.0,-999.0,49,0.00,,,0.00,open2300 v1.10,2013-02-24 16:42:00,
2013-02-24 11:18:00,57.4,36.1,30.09,East,90,0.0,-999.0,45,0.00,,,0.00,open2300 v1.10,2013-02-24 17:18:00,
2013-02-24 11:42:00,57.9,34.9,30.08,SE,135,0.0,-999.0,42,0.00,,,0.00,open2300 v1.10,2013-02-24 17:42:00,
2013-02-24 12:18:00,59.5,34.5,30.06,NE,45,0.0,-999.0,39,0.00,,,0.00,open2300 v1.10,2013-02-24 18:18:00,
2013-02-24 14:42:00,62.4,34.9,29.99,NE,45,0.0,-999.0,36,0.00,,,0.00,open2300 v1.10,2013-02-24 20:42:00,
2013-02-24 15:42:00,64.8,35.6,29.98,ENE,67,0.0,-999.0,34,0.00,,,0.00,open2300 v1.10,2013-02-24 21:42:00,
2013-02-24 16:57:00,59.5,34.5,29.96,East,90,0.0,-999.0,39,0.00,,,0.00,open2300 v1.10,2013-02-24 22:57:00,
2013-02-24 17:18:00,57.4,33.2,29.96,ENE,67,0.0,-999.0,40,0.00,,,0.00,open2300 v1.10,2013-02-24 23:18:00,
2013-02-24 17:33:00,55.4,32.0,29.96,ENE,67,0.0,-999.0,41,0.00,,,0.00,open2300 v1.10,2013-02-24 23:33:00,
2013-02-24 17:48:00,53.6,32.1,29.96,ENE,67,0.0,-999.0,44,0.00,,,0.00,open2300 v1.10,2013-02-24 23:48:00,
2013-02-24 18:27:00,50.4,31.4,29.97,ENE,67,0.0,-999.0,48,0.00,,,0.00,open2300 v1.10,2013-02-25 00:27:00,
2013-02-24 18:57:00,48.7,31.4,29.96,ENE,67,0.0,-999.0,51,0.00,,,0.00,open2300 v1.10,2013-02-25 00:57:00,
2013-02-24 19:04:00,48.4,31.0,29.96,ENE,67,0.0,-999.0,51,0.00,,,0.00,open2300 v1.10,2013-02-25 01:04:00,
2013-02-24 19:12:00,48.4,31.0,29.97,ENE,67,0.0,-999.0,51,0.00,,,0.00,open2300 v1.10,2013-02-25 01:12:00,
2013-02-24 19:18:00,48.0,31.1,29.97,ENE,67,0.0,-999.0,52,0.00,,,0.00,open2300 v1.10,2013-02-25 01:18:00,
2013-02-24 19:27:00,47.5,30.6,29.96,ENE,67,0.0,-999.0,52,0.00,,,0.00,open2300 v1.10,2013-02-25 01:27:00,
2013-02-24 19:33:00,47.1,30.8,29.96,ENE,67,0.0,-999.0,53,0.00,,,0.00,open2300 v1.10,2013-02-25 01:33:00,
2013-02-24 19:42:00,46.4,30.6,29.96,ENE,67,0.0,-999.0,54,0.00,,,0.00,open2300 v1.10,2013-02-25 01:42:00,
2013-02-24 19:48:00,46.2,30.4,29.96,ENE,67,0.0,-999.0,54,0.00,,,0.00,open2300 v1.10,2013-02-25 01:48:00,
2013-02-24 19:57:00,46.2,30.4,29.96,ENE,67,0.0,-999.0,54,0.00,,,0.00,open2300 v1.10,2013-02-25 01:57:00,
2013-02-24 20:04:00,46.4,30.6,29.95,ENE,67,0.0,-999.0,54,0.00,,,0.00,open2300 v1.10,2013-02-25 02:04:00,
2013-02-24 20:12:00,46.6,30.7,29.95,ENE,67,0.0,-999.0,54,0.00,,,0.00,open2300 v1.10,2013-02-25 02:12:00,
2013-02-24 20:18:00,46.6,30.3,29.95,ENE,67,0.0,-999.0,53,0.00,,,0.00,open2300 v1.10,2013-02-25 02:18:00,
2013-02-24 20:27:00,46.6,30.3,29.95,ENE,67,0.0,-999.0,53,0.00,,,0.00,open2300 v1.10,2013-02-25 02:27:00,
2013-02-24 20:33:00,46.6,30.3,29.95,ENE,67,0.0,-999.0,53,0.00,,,0.00,open2300 v1.10,2013-02-25 02:33:00,
2013-02-24 20:42:00,46.2,30.0,29.94,ENE,67,0.0,-999.0,53,0.00,,,0.00,open2300 v1.10,2013-02-25 02:42:00,
2013-02-24 20:48:00,46.2,30.0,29.94,ENE,67,0.0,-999.0,53,0.00,,,0.00,open2300 v1.10,2013-02-25 02:48:00,
2013-02-24 20:57:00,46.2,30.0,29.94,ENE,67,0.0,-999.0,53,0.00,,,0.00,open2300 v1.10,2013-02-25 02:57:00,
2013-02-24 21:04:00,46.2,30.0,29.94,ENE,67,0.0,-999.0,53,0.00,,,0.00,open2300 v1.10,2013-02-25 03:04:00,
2013-02-24 21:12:00,46.2,30.0,29.94,ENE,67,0.0,-999.0,53,0.00,,,0.00,open2300 v1.10,2013-02-25 03:12:00,
2013-02-24 21:18:00,46.0,29.8,29.94,ENE,67,0.0,-999.0,53,0.00,,,0.00,open2300 v1.10,2013-02-25 03:18:00,
2013-02-24 21:27:00,45.7,29.9,29.93,ENE,67,0.0,-999.0,54,0.00,,,0.00,open2300 v1.10,2013-02-25 03:27:00,
2013-02-24 21:33:00,45.3,29.6,29.93,ENE,67,0.0,-999.0,54,0.00,,,0.00,open2300 v1.10,2013-02-25 03:33:00,
2013-02-24 21:42:00,45.1,29.4,29.93,ENE,67,0.0,-999.0,54,0.00,,,0.00,open2300 v1.10,2013-02-25 03:42:00,
2013-02-24 21:48:00,45.3,29.6,29.93,ENE,67,0.0,-999.0,54,0.00,,,0.00,open2300 v1.10,2013-02-25 03:48:00,
2013-02-24 21:57:00,45.0,29.7,29.93,ENE,67,0.0,-999.0,55,0.00,,,0.00,open2300 v1.10,2013-02-25 03:57:00,
2013-02-24 22:04:00,45.0,29.7,29.92,ENE,67,0.0,-999.0,55,0.00,,,0.00,open2300 v1.10,2013-02-25 04:04:00,
2013-02-24 22:12:00,45.0,29.3,29.92,ENE,67,0.0,-999.0,54,0.00,,,0.00,open2300 v1.10,2013-02-25 04:12:00,
2013-02-24 22:18:00,44.8,29.1,29.92,ENE,67,0.0,-999.0,54,0.00,,,0.00,open2300 v1.10,2013-02-25 04:18:00,
2013-02-24 22:27:00,45.0,29.3,29.92,ENE,67,0.0,-999.0,54,0.00,,,0.00,open2300 v1.10,2013-02-25 04:27:00,
2013-02-24 22:33:00,45.0,29.3,29.92,ENE,67,0.0,-999.0,54,0.00,,,0.00,open2300 v1.10,2013-02-25 04:33:00,
2013-02-24 22:42:00,44.8,29.1,29.91,ENE,67,0.0,-999.0,54,0.00,,,0.00,open2300 v1.10,2013-02-25 04:42:00,
2013-02-24 22:48:00,44.6,28.9,29.91,ENE,67,0.0,-999.0,54,0.00,,,0.00,open2300 v1.10,2013-02-25 04:48:00,
2013-02-24 22:57:00,44.4,28.8,29.91,ENE,67,0.0,-999.0,54,0.00,,,0.00,open2300 v1.10,2013-02-25 04:57:00,
2013-02-24 23:04:00,44.4,28.8,29.91,ENE,67,0.0,-999.0,54,0.00,,,0.00,open2300 v1.10,2013-02-25 05:04:00,
2013-02-24 23:12:00,44.4,28.8,29.92,ENE,67,0.0,-999.0,54,0.00,,,0.00,open2300 v1.10,2013-02-25 05:12:00,
2013-02-24 23:18:00,44.6,28.9,29.91,ENE,67,0.0,-999.0,54,0.00,,,0.00,open2300 v1.10,2013-02-25 05:18:00,
2013-02-24 23:27:00,44.6,29.4,29.91,ESE,112,0.0,-999.0,55,0.00,,,0.00,open2300 v1.10,2013-02-25 05:27:00,
2013-02-24 23:33:00,44.4,29.2,29.92,ESE,112,0.0,-999.0,55,0.00,,,0.00,open2300 v1.10,2013-02-25 05:33:00,
2013-02-24 23:42:00,44.1,29.3,29.92,ESE,112,0.0,-999.0,56,0.00,,,0.00,open2300 v1.10,2013-02-25 05:42:00,
2013-02-24 23:48:00,43.9,29.1,29.91,ESE,112,0.0,-999.0,56,0.00,,,0.00,open2300 v1.10,2013-02-25 05:48:00,
2013-02-24 23:57:00,44.1,29.8,29.91,ESE,112,0.0,-999.0,57,0.00,,,0.00,open2300 v1.10,2013-02-25 05:57:00,